Tracking 28091 objects as of 29-Sep-2023
HD Live streaming from Space Station
objects crossing your sky now

IRIDIUM 24

Track IRIDIUM 24 now!
10-day predictions
IRIDIUM 24 is classified as:


NORAD ID: 25105
Int'l Code: 1997-082B
Perigee: 755.2 km
Apogee: 771.2 km
Inclination: 86.4 °
Period: 99.9 minutes
Semi major axis: 7134 km
RCS: 4.2836 m2 (large)
Launch date: December 20, 1997
Source: United States (US)
Launch site: AIR FORCE WESTERN TEST RANGE (AFWTR)
Your satellite tracking list
Your tracking list is empty




NASA's NSSDC Master Catalog

Two Line Element Set (TLE):
1 25105U 97082B   23271.74275290  .00000862  00000-0  26352-3 0  9997
2 25105  86.3962 345.9903 0011241   0.2308 359.8895 14.40745641352838
Source of the keplerian elements: AFSPC